GW3294 Weather Reports


Display with metric or nautical units.
time (UTC)temp
F
wind
direction
speed
MPH
gust
MPH
rain 1hr
in
rain 24hr
in
rain mn
in
humidity
%
barometer
mb
20260906005349 88 117 0.0 1.0 0.00 0.00 0.00 66 1014.1
20260906004848 90 217 0.0 0.0 0.00 0.00 0.00 66 1014.1
20260906004347 90 242 0.0 1.0 0.00 0.00 0.00 63 1014.3
20260906003842 89 142 0.0 1.0 0.00 0.00 0.00 65 1014.0
20260906003338 90 116 0.0 1.0 0.00 0.00 0.00 65 1013.8
20260906002834 91 117 0.0 1.0 0.00 0.00 0.00 64 1013.9
20260906002333 92 255 0.0 0.0 0.00 0.00 0.00 60 1014.1
20260906001828 93 89 0.0 0.0 0.00 0.00 0.00 60 1014.3
20260906001324 94 242 0.0 1.0 0.00 0.00 0.00 57 1014.0
20260906000819 94 269 0.0 2.0 0.00 0.00 0.00 56 1014.1
20260906000313 94 322 0.0 1.0 0.00 0.00 0.00 57 1014.0
20260905235809 94 309 0.0 0.0 0.00 0.00 0.00 57 1014.0
20260905235308 95 117 0.0 0.0 0.00 0.00 0.00 56 1014.1
20260905234804 95 245 0.0 1.0 0.00 0.00 0.00 55 1014.1
20260905234259 96 193 0.0 1.0 0.00 0.00 0.00 55 1014.1
20260905233754 96 62 0.0 1.0 0.00 0.00 0.00 55 1014.1
20260905233254 96 266 1.0 2.0 0.00 0.00 0.00 53 1014.1
20260905232753 96 118 1.0 1.0 0.00 0.00 0.00 56 1014.2
20260905232249 96 249 0.0 2.0 0.00 0.00 0.00 54 1014.3
20260905231745 95 326 0.0 2.0 0.00 0.00 0.00 56 1014.4
20260905231240 95 199 0.0 3.0 0.00 0.00 0.00 56 1014.3
20260905230736 96 62 0.0 1.0 0.00 0.00 0.00 53 1014.3
20260905230233 96 233 0.0 2.0 0.00 0.00 0.00 53 1014.1
20260905225733 95 203 2.0 3.0 0.00 0.00 0.00 56 1014.3
20260905225229 98 166 0.0 3.0 0.00 0.00 0.00 54 1014.1
20260905224727 98 268 1.0 2.0 0.00 0.00 0.00 48 1014.3
20260905224223 99 237 1.0 3.0 0.00 0.00 0.00 48 1014.0
20260905223719 101 220 1.0 2.0 0.00 0.00 0.00 50 1014.0
20260905223216 102 254 2.0 2.0 0.00 0.00 0.00 47 1014.0
20260905222712 103 194 0.0 2.0 0.00 0.00 0.00 45 1014.2
20260905222210 103 224 0.0 2.0 0.00 0.00 0.00 47 1014.1
20260905221706 102 260 1.0 2.0 0.00 0.00 0.00 47 1014.0
20260905221203 100 246 1.0 3.0 0.00 0.00 0.00 48 1014.2
20260905220659 102 261 1.0 2.0 0.00 0.00 0.00 46 1014.1
20260905220154 104 260 0.0 2.0 0.00 0.00 0.00 45 1014.0
20260905215649 104 242 0.0 2.0 0.00 0.00 0.00 42 1014.3
20260905215144 103 228 1.0 2.0 0.00 0.00 0.00 43 1014.2
20260905214640 104 273 1.0 2.0 0.00 0.00 0.00 44 1014.1
20260905214135 103 195 2.0 3.0 0.00 0.00 0.00 43 1014.4
20260905213630 105 248 2.0 3.0 0.00 0.00 0.00 42 1014.2
20260905213125 103 265 2.0 4.0 0.00 0.00 0.00 43 1014.0
20260905212620 105 57 0.0 2.0 0.00 0.00 0.00 41 1014.2
20260905212114 104 264 2.0 3.0 0.00 0.00 0.00 41 1014.1
20260905211609 105 251 2.0 3.0 0.00 0.00 0.00 39 1014.4
20260905211105 104 220 1.0 3.0 0.00 0.00 0.00 39 1014.3
20260905210602 104 278 2.0 3.0 0.00 0.00 0.00 40 1014.3
20260905210055 102 134 1.0 3.0 0.00 0.00 0.00 44 1014.4
20260905205554 102 238 2.0 3.0 0.00 0.00 0.00 42 1014.6
20260905205049 102 268 2.0 4.0 0.00 0.00 0.00 43 1014.7
20260905204544 100 163 2.0 6.0 0.00 0.00 0.00 41 1014.6
20260905204039 99 247 2.0 7.0 0.00 0.00 0.00 45 1014.6
20260905203538 105 228 0.0 3.0 0.00 0.00 0.00 44 1014.5
20260905203034 105 211 0.0 3.0 0.00 0.00 0.00 42 1014.4
20260905202529 103 292 2.0 2.0 0.00 0.00 0.00 44 1014.6
20260905202025 102 235 1.0 3.0 0.00 0.00 0.00 44 1014.6
20260905201520 103 264 2.0 3.0 0.00 0.00 0.00 43 1014.6
20260905201019 105 283 0.0 2.0 0.00 0.00 0.00 42 1014.7
20260905200515 106 51 2.0 4.0 0.00 0.00 0.00 40 1014.7
20260905200015 106 171 1.0 5.0 0.00 0.00 0.00 38 1014.7
20260905195515 109 223 2.0 3.0 0.00 0.00 0.00 38 1014.8
20260905195010 107 249 2.0 3.0 0.00 0.00 0.00 38 1014.9
20260905194509 107 277 3.0 4.0 0.00 0.00 0.00 38 1015.0
20260905194003 107 290 2.0 4.0 0.00 0.00 0.00 38 1014.9
20260905193458 106 230 1.0 3.0 0.00 0.00 0.00 40 1015.1
20260905192953 108 136 1.0 6.0 0.00 0.00 0.00 38 1015.2
20260905192449 109 260 2.0 5.0 0.00 0.00 0.00 38 1015.4
20260905191945 108 250 3.0 4.0 0.00 0.00 0.00 37 1015.2
20260905191443 108 249 2.0 5.0 0.00 0.00 0.00 38 1015.4
20260905190942 106 60 1.0 6.0 0.00 0.00 0.00 39 1015.4
20260905190436 107 146 3.0 4.0 0.00 0.00 0.00 38 1015.6
20260905185934 106 255 1.0 5.0 0.00 0.00 0.00 39 1015.4
20260905185429 105 223 2.0 6.0 0.00 0.00 0.00 40 1015.5
20260905184928 107 178 2.0 6.0 0.00 0.00 0.00 37 1015.4
20260905184423 108 193 4.0 6.0 0.00 0.00 0.00 37 1015.6
20260905183921 107 242 0.0 3.0 0.00 0.00 0.00 39 1015.7
20260905183416 106 310 2.0 4.0 0.00 0.00 0.00 39 1015.7
20260905182912 105 252 2.0 9.0 0.00 0.00 0.00 44 1015.7
20260905182410 105 0 1.0 5.0 0.00 0.00 0.00 42 1015.9
20260905181907 105 241 2.0 6.0 0.00 0.00 0.00 39 1015.7
20260905181407 105 266 3.0 5.0 0.00 0.00 0.00 43 1016.0
20260905180905 105 195 3.0 6.0 0.00 0.00 0.00 42 1016.0
20260905180401 105 234 2.0 5.0 0.00 0.00 0.00 43 1016.1
20260905175855 103 14 1.0 4.0 0.00 0.00 0.00 45 1016.0
20260905175355 104 261 1.0 5.0 0.00 0.00 0.00 45 1016.0
20260905174850 105 320 3.0 4.0 0.00 0.00 0.00 45 1016.0
20260905174346 103 253 3.0 7.0 0.00 0.00 0.00 45 1016.1
20260905173842 103 203 4.0 8.0 0.00 0.00 0.00 44 1016.0
20260905173337 102 241 1.0 5.0 0.00 0.00 0.00 49 1016.2
20260905172832 103 162 0.0 5.0 0.00 0.00 0.00 44 1016.4
20260905172330 102 179 0.0 4.0 0.00 0.00 0.00 50 1016.4
20260905171827 103 167 0.0 4.0 0.00 0.00 0.00 44 1016.4
20260905171323 103 132 1.0 4.0 0.00 0.00 0.00 46 1016.6
20260905170819 102 239 2.0 5.0 0.00 0.00 0.00 45 1016.4
20260905170315 102 126 2.0 7.0 0.00 0.00 0.00 45 1016.5
20260905165814 102 269 0.0 3.0 0.00 0.00 0.00 46 1016.7
20260905165310 101 219 1.0 3.0 0.00 0.00 0.00 47 1016.8
20260905164809 100 206 0.0 4.0 0.00 0.00 0.00 51 1017.0
20260905164304 100 279 2.0 5.0 0.00 0.00 0.00 48 1016.7
20260905163759 98 244 3.0 4.0 0.00 0.00 0.00 50 1016.8
20260905163256 98 255 1.0 4.0 0.00 0.00 0.00 50 1016.9
20260905162752 99 211 1.0 5.0 0.00 0.00 0.00 50 1017.0
20260905162251 98 172 2.0 4.0 0.00 0.00 0.00 51 1016.9
20260905161746 99 140 0.0 3.0 0.00 0.00 0.00 52 1017.1
20260905161244 99 80 0.0 3.0 0.00 0.00 0.00 49 1017.0
20260905160737 98 164 0.0 3.0 0.00 0.00 0.00 52 1016.9
20260905160232 97 183 0.0 2.0 0.00 0.00 0.00 56 1017.2
20260905155726 97 230 0.0 4.0 0.00 0.00 0.00 54 1017.0
20260905155225 96 166 2.0 2.0 0.00 0.00 0.00 56 1017.0
20260905154719 96 266 2.0 3.0 0.00 0.00 0.00 58 1017.0
20260905154215 95 258 2.0 4.0 0.00 0.00 0.00 58 1017.0
20260905153711 95 268 1.0 5.0 0.00 0.00 0.00 58 1017.1
20260905153207 95 65 1.0 3.0 0.00 0.00 0.00 56 1017.1
20260905152701 95 261 2.0 2.0 0.00 0.00 0.00 58 1017.1
20260905152156 94 307 2.0 3.0 0.00 0.00 0.00 59 1017.1
20260905151656 93 201 2.0 7.0 0.00 0.00 0.00 59 1017.2
20260905151151 92 275 3.0 4.0 0.00 0.00 0.00 60 1017.0
20260905150652 93 181 1.0 5.0 0.00 0.00 0.00 60 1017.0
20260905150150 91 297 0.0 3.0 0.00 0.00 0.00 64 1017.0
20260905145648 90 168 1.0 5.0 0.00 0.00 0.00 66 1017.3
20260905145143 89 269 0.0 3.0 0.00 0.00 0.00 71 1017.0
20260905144638 89 196 1.0 2.0 0.00 0.00 0.00 71 1017.1
20260905144137 91 238 2.0 2.0 0.00 0.00 0.00 68 1017.2
20260905143631 89 224 0.0 4.0 0.00 0.00 0.00 68 1017.0
20260905143126 89 199 0.0 3.0 0.00 0.00 0.00 68 1017.0
20260905142625 88 265 1.0 4.0 0.00 0.00 0.00 72 1017.0
20260905142124 87 223 2.0 2.0 0.00 0.00 0.00 70 1017.1
20260905141619 86 229 0.0 3.0 0.00 0.00 0.00 73 1017.1
20260905141115 85 167 3.0 4.0 0.00 0.00 0.00 75 1016.9
20260905140610 84 290 0.0 4.0 0.00 0.00 0.00 77 1017.2
20260905140109 83 184 1.0 2.0 0.00 0.00 0.00 79 1017.2
20260905135605 83 129 0.0 2.0 0.00 0.00 0.00 79 1017.1
20260905135100 82 162 0.0 2.0 0.00 0.00 0.00 79 1017.0
20260905134554 82 187 1.0 2.0 0.00 0.00 0.00 80 1017.0
20260905134053 82 230 0.0 3.0 0.00 0.00 0.00 82 1016.9
20260905133548 81 46 0.0 1.0 0.00 0.00 0.00 81 1016.8
20260905133042 80 207 1.0 3.0 0.00 0.00 0.00 84 1016.8
20260905132537 80 258 1.0 2.0 0.00 0.00 0.00 86 1016.7
20260905132031 79 183 0.0 3.0 0.00 0.00 0.00 88 1016.9
20260905131527 78 287 0.0 3.0 0.00 0.00 0.00 90 1016.9
20260905131022 77 149 1.0 2.0 0.00 0.00 0.00 93 1016.8
20260905130521 76 269 0.0 1.0 0.00 0.00 0.00 94 1016.7
20260905130017 76 260 0.0 1.0 0.00 0.00 0.00 95 1016.8
20260905125516 76 104 0.0 1.0 0.00 0.00 0.00 96 1016.8
20260905125012 75 37 0.0 0.0 0.00 0.00 0.00 96 1016.7
20260905124508 75 164 0.0 0.0 0.00 0.00 0.00 97 1016.7
20260905124004 75 104 0.0 1.0 0.00 0.00 0.00 97 1016.4
20260905123459 75 143 1.0 2.0 0.00 0.00 0.00 97 1016.5
20260905122954 74 129 0.0 1.0 0.00 0.00 0.00 97 1016.3
20260905122449 74 126 0.0 1.0 0.00 0.00 0.00 97 1016.7
20260905121944 74 142 0.0 1.0 0.00 0.00 0.00 97 1016.2
20260905121440 74 130 0.0 0.0 0.00 0.00 0.00 97 1016.6
20260905120938 73 130 0.0 0.0 0.00 0.00 0.00 97 1016.6
20260905120428 74 142 0.0 0.0 0.00 0.00 0.00 97 1016.5
20260905115923 74 154 0.0 0.0 0.00 0.00 0.00 97 1016.4
20260905115421 73 147 0.0 0.0 0.00 0.00 0.00 97 1016.3
20260905114911 74 147 0.0 1.0 0.00 0.00 0.00 97 1016.1
20260905114410 74 142 0.0 1.0 0.00 0.00 0.00 97 1016.2
20260905113904 73 89 0.0 1.0 0.00 0.00 0.00 97 1016.2
20260905113359 74 126 0.0 1.0 0.00 0.00 0.00 97 1016.2
20260905112854 74 80 0.0 1.0 0.00 0.00 0.00 97 1015.9
20260905112350 74 154 0.0 1.0 0.00 0.00 0.00 97 1015.9
20260905111844 74 117 0.0 2.0 0.00 0.00 0.00 97 1016.0
20260905111338 74 122 0.0 1.0 0.00 0.00 0.00 97 1016.0
20260905110838 74 183 0.0 2.0 0.00 0.00 0.00 97 1015.9
20260905110332 74 142 0.0 1.0 0.00 0.00 0.00 97 1015.9
20260905105827 74 142 0.0 2.0 0.00 0.00 0.00 97 1015.9
20260905105327 74 119 0.0 1.0 0.00 0.00 0.00 97 1016.0
20260905104821 74 150 0.0 1.0 0.00 0.00 0.00 97 1015.7
20260905104318 74 129 0.0 2.0 0.00 0.00 0.00 97 1015.9
20260905103817 74 147 0.0 1.0 0.00 0.00 0.00 97 1015.9
20260905103313 74 135 0.0 2.0 0.00 0.00 0.00 97 1015.9
20260905102809 74 117 0.0 0.0 0.00 0.00 0.00 96 1016.0
20260905102306 74 129 0.0 0.0 0.00 0.00 0.00 96 1015.9
20260905101805 74 135 0.0 1.0 0.00 0.00 0.00 96 1015.9
20260905101304 74 62 0.0 1.0 0.00 0.00 0.00 96 1016.0
20260905100757 74 124 0.0 1.0 0.00 0.00 0.00 96 1016.1
20260905100253 74 135 0.0 2.0 0.00 0.00 0.00 96 1016.0
20260905095752 75 127 0.0 1.0 0.00 0.00 0.00 96 1016.0
20260905095247 75 113 0.0 1.0 0.00 0.00 0.00 96 1016.0
20260905094742 75 129 0.0 1.0 0.00 0.00 0.00 96 1015.9
20260905094237 75 173 0.0 0.0 0.00 0.00 0.00 96 1016.0
20260905093737 75 154 0.0 1.0 0.00 0.00 0.00 96 1015.9
20260905093233 75 117 0.0 1.0 0.00 0.00 0.00 96 1016.1
20260905092727 75 112 0.0 1.0 0.00 0.00 0.00 96 1016.0
20260905092222 75 136 0.0 1.0 0.00 0.00 0.00 96 1015.9
20260905091717 75 62 0.0 0.0 0.00 0.00 0.00 96 1015.9
20260905091212 75 117 0.0 1.0 0.00 0.00 0.00 96 1015.9
20260905090711 75 129 0.0 2.0 0.00 0.00 0.00 96 1015.8
20260905090207 75 115 0.0 1.0 0.00 0.00 0.00 95 1016.0
20260905085705 75 129 0.0 0.0 0.00 0.00 0.00 95 1015.9
20260905085200 75 138 0.0 1.0 0.00 0.00 0.00 95 1015.9
20260905084654 75 117 0.0 1.0 0.00 0.00 0.00 95 1015.8
20260905084149 76 117 0.0 1.0 0.00 0.00 0.00 95 1016.0
20260905083649 76 120 1.0 1.0 0.00 0.00 0.00 95 1016.0
20260905083146 76 117 0.0 1.0 0.00 0.00 0.00 94 1016.0
20260905082642 76 89 0.0 1.0 0.00 0.00 0.00 94 1016.2
20260905082137 76 101 0.0 1.0 0.00 0.00 0.00 94 1016.2
20260905081631 76 104 0.0 1.0 0.00 0.00 0.00 94 1016.3
20260905081126 76 135 0.0 1.0 0.00 0.00 0.00 94 1016.4
20260905080621 76 129 0.0 1.0 0.00 0.00 0.00 94 1016.3
20260905080120 76 142 0.0 0.0 0.00 0.00 0.00 94 1016.4
20260905075620 76 117 0.0 1.0 0.00 0.00 0.00 94 1016.4
20260905075114 76 117 0.0 1.0 0.00 0.00 0.00 94 1016.3
20260905074613 76 122 1.0 1.0 0.00 0.00 0.00 94 1016.2
20260905074109 76 142 0.0 1.0 0.00 0.00 0.00 93 1016.2
20260905073605 76 117 0.0 1.0 0.00 0.00 0.00 92 1016.3
20260905073100 76 154 0.0 1.0 0.00 0.00 0.00 93 1016.2
20260905072559 76 124 0.0 1.0 0.00 0.00 0.00 93 1016.3
20260905072055 77 126 0.0 1.0 0.00 0.00 0.00 93 1016.4
20260905071551 77 89 0.0 1.0 0.00 0.00 0.00 92 1016.3
20260905071046 77 129 0.0 1.0 0.00 0.00 0.00 92 1016.5
20260905070541 77 129 0.0 1.0 0.00 0.00 0.00 92 1016.5
20260905070038 77 147 0.0 1.0 0.00 0.00 0.00 92 1016.5
20260905065535 76 113 0.0 1.0 0.00 0.00 0.00 92 1016.4
20260905065030 77 129 0.0 1.0 0.00 0.00 0.00 92 1016.5
20260905064530 77 124 0.0 0.0 0.00 0.00 0.00 92 1016.5
20260905064026 77 117 0.0 1.0 0.00 0.00 0.00 92 1016.5
20260905063524 77 115 0.0 1.0 0.00 0.00 0.00 92 1016.4
20260905063021 77 125 0.0 1.0 0.00 0.00 0.00 92 1016.4
20260905062521 77 124 0.0 2.0 0.00 0.00 0.00 92 1016.4
20260905062021 77 149 1.0 2.0 0.00 0.00 0.00 92 1016.4
20260905061516 77 104 0.0 1.0 0.00 0.00 0.00 91 1016.7
20260905061015 77 129 0.0 1.0 0.00 0.00 0.00 91 1016.5
20260905060511 77 129 0.0 1.0 0.00 0.00 0.00 91 1016.6
20260905060007 77 147 0.0 1.0 0.00 0.00 0.00 91 1016.4
20260905055505 77 117 0.0 0.0 0.00 0.00 0.00 91 1016.6
20260905055000 77 124 0.0 1.0 0.00 0.00 0.00 91 1016.5
20260905054456 77 135 0.0 0.0 0.00 0.00 0.00 90 1016.6
20260905053951 77 129 0.0 1.0 0.00 0.00 0.00 90 1016.6
20260905053446 77 135 0.0 1.0 0.00 0.00 0.00 90 1016.7
20260905052942 77 154 0.0 1.0 0.00 0.00 0.00 91 1016.5
20260905052441 78 129 0.0 1.0 0.00 0.00 0.00 90 1016.7
20260905051941 77 117 0.0 1.0 0.00 0.00 0.00 90 1016.7
20260905051436 78 135 0.0 1.0 0.00 0.00 0.00 90 1016.6
20260905050933 78 116 0.0 2.0 0.00 0.00 0.00 89 1016.6
20260905050423 78 150 0.0 1.0 0.00 0.00 0.00 89 1016.4
20260905045918 78 142 0.0 1.0 0.00 0.00 0.00 89 1016.4
20260905045408 78 113 0.0 1.0 0.00 0.00 0.00 89 1016.4
20260905044903 78 141 0.0 2.0 0.00 0.00 0.00 88 1016.4
20260905044358 78 129 0.0 0.0 0.00 0.00 0.00 86 1016.5
20260905043857 78 205 0.0 1.0 0.00 0.00 0.00 87 1016.5
20260905043352 79 154 0.0 1.0 0.00 0.00 0.00 87 1016.4
20260905042846 79 157 0.0 0.0 0.00 0.00 0.00 86 1016.5
20260905042340 78 154 0.0 0.0 0.00 0.00 0.00 85 1016.5
20260905041835 79 139 0.0 1.0 0.00 0.00 0.00 86 1016.4
20260905041331 78 154 0.0 0.0 0.00 0.00 0.00 86 1016.5
20260905040826 79 129 0.0 1.0 0.00 0.00 0.00 86 1016.3
20260905040324 79 147 0.0 1.0 0.00 0.00 0.00 83 1016.5
20260905035819 79 50 0.0 1.0 0.00 0.00 0.00 85 1016.3
20260905035315 79 180 0.0 1.0 0.00 0.00 0.00 85 1016.6
20260905034811 79 147 0.0 2.0 0.00 0.00 0.00 86 1016.4
20260905034306 79 124 0.0 1.0 0.00 0.00 0.00 85 1016.4
20260905033804 80 157 0.0 1.0 0.00 0.00 0.00 85 1016.6
20260905033255 80 117 0.0 1.0 0.00 0.00 0.00 82 1016.6
20260905032754 80 322 0.0 0.0 0.00 0.00 0.00 81 1016.8
20260905032249 80 279 1.0 1.0 0.00 0.00 0.00 84 1016.6
20260905031744 80 118 0.0 1.0 0.00 0.00 0.00 82 1016.6
20260905031240 80 147 0.0 0.0 0.00 0.00 0.00 82 1016.3
20260905030735 80 147 0.0 1.0 0.00 0.00 0.00 83 1016.5
20260905030230 80 135 0.0 0.0 0.00 0.00 0.00 82 1016.5
20260905025725 80 326 0.0 2.0 0.00 0.00 0.00 83 1016.5
20260905025220 81 120 0.0 1.0 0.00 0.00 0.00 82 1016.6
20260905024716 81 132 0.0 2.0 0.00 0.00 0.00 82 1016.5
20260905024212 81 124 0.0 2.0 0.00 0.00 0.00 82 1016.4
20260905023707 81 73 0.0 1.0 0.00 0.00 0.00 82 1016.3
20260905023206 81 129 0.0 1.0 0.00 0.00 0.00 82 1016.3
20260905022705 81 142 0.0 1.0 0.00 0.00 0.00 81 1016.3
20260905022200 81 104 0.0 1.0 0.00 0.00 0.00 80 1016.1
20260905021655 82 154 0.0 1.0 0.00 0.00 0.00 81 1016.2
20260905021150 82 142 0.0 1.0 0.00 0.00 0.00 80 1016.2
20260905020645 83 145 1.0 1.0 0.00 0.00 0.00 79 1016.0
20260905020140 82 25 0.0 1.0 0.00 0.00 0.00 75 1016.0
20260905015639 83 130 0.0 2.0 0.00 0.00 0.00 78 1015.9
20260905015133 84 146 0.0 1.0 0.00 0.00 0.00 74 1015.9
20260905014627 84 249 0.0 0.0 0.00 0.00 0.00 73 1015.9
20260905014123 83 117 0.0 0.0 0.00 0.00 0.00 76 1015.7
20260905013619 84 116 0.0 1.0 0.00 0.00 0.00 75 1015.9
20260905013114 85 135 0.0 0.0 0.00 0.00 0.00 70 1015.8
20260905012609 84 154 0.0 0.0 0.00 0.00 0.00 74 1015.6
20260905012106 85 129 0.0 0.0 0.00 0.00 0.00 73 1015.7
20260905011601 86 142 0.0 1.0 0.00 0.00 0.00 71 1015.5
20260905011056 87 124 0.0 0.0 0.00 0.00 0.00 70 1015.6
20260905010550 86 124 0.0 0.0 0.00 0.00 0.00 68 1015.4
20260905010047 87 124 0.0 0.0 0.00 0.00 0.00 68 1015.5
20260905005542 87 124 0.0 1.0 0.00 0.00 0.00 66 1015.5